Location: Wanzleben
(52.0609°N, 11.4408°E)
Time: 01:35:10
(UTC+00:00)

Envisat - Pass Details

Date: 01 December 2020
Orbit: 764 x 766 km, 98.1° (Epoch: 20 January)

Event Time Altitude Azimuth Distance (km) Brightness Sun altitude
Rises 05:15:54 0° 15° (NNE) 3,248 6.2 -15.2°
Reaches altitude 10° 05:18:14 10° 17° (NNE) 2,317 5.5 -14.9°
Maximum altitude 05:23:21 78° 104° (ESE) 790 3.2 -14.1°
Drops below altitude 10° 05:28:25 10° 191° (S) 2,299 5.6 -13.4°
Sets 05:30:43 0° 193° (SSW) 3,220 6.3 -13.1°
